Location: Schommer Observatory
(40.5200°N, 74.4500°W)
Time: 04:22:28
(UTC-04:00)

ISS - Pass Details

Date: 16 May 2018
Orbit: 402 x 407 km, 51.6° (Epoch: 23 May)

Event Time Altitude Azimuth Distance (km) Brightness Sun altitude
Exits shadow 02:07:29 15° 348° (NNW) 1,197 -0.8 -28.0°
Drops below altitude 10° 02:09:23 10° 24° (NNE) 1,458 0.0 -27.9°
Sets 02:12:08 0° 49° (NE) 2,319 0.9 -27.7°
